Location: Seagrape Drive
(25.8948°N, 81.3265°W)
Time: 23:29:32
(UTC-04:00)

Tiangong 2 - Visible Passes

Search period start: 20 May 2018 00:00
Search period end: 30 May 2018 00:00
Orbit: 382 x 386 km, 42.8° (Epoch: 20 May)

Date Brightness Start Highest point End Pass type
(mag) Time Alt. Az. Time Alt. Az. Time Alt. Az.
20 May 3.7 04:23:59 21° NE 04:23:59 21° NE 04:26:12 10° E visible
20 May 1.9 05:57:35 10° WNW 06:00:23 29° SW 06:03:11 10° SSE visible
20 May 1.3 20:50:09 10° SW 20:53:10 46° SE 20:56:12 10° ENE visible
20 May 4.1 22:27:55 10° WNW 22:29:42 16° NW 22:29:42 16° NW visible
21 May 1.9 05:01:39 41° SE 05:01:39 41° SE 05:03:50 10° SE visible
21 May 3.1 21:27:17 10° W 21:30:06 30° NNW 21:32:55 10° NNE visible
22 May 1.4 20:27:09 10° WSW 20:30:16 69° NW 20:33:24 10° NE visible
22 May 4.7 22:07:16 10° NNW 22:07:23 10° NNW 22:07:30 10° NNW visible
23 May 4.1 21:05:14 10° WNW 21:07:21 17° NNW 21:09:29 10° NNE visible
25 May 4.6 20:44:19 10° NNW 20:44:41 10° NNW 20:45:04 10° NNW visible
